User: anonymous   Login
Location: Potawatomi Wildlife Park
(41.2308°N, 86.1050°W)
Time: 21:27:17
(UTC-04:00)
Language:

SL-16 R/B - Orbit

View from above orbital plane
View from above orbital plane
View from above satellite
View from above satellite

Ground track
Ground track

The orbit data is extracted from the following two-line orbital elements,

1 27006U 01056F   17149.53469118 -.00000049 +00000-0 -71536-5 0  9998
2 27006 099.3107 291.2904 0014589 001.9874 039.5326 13.70970913773857
Epoch (UTC): 29 May 2017 12:49:57
Eccentricity: 0.0014589
inclination: 99.3107°
perigee height: 985 km
apogee height: 1007 km
right ascension of ascending node: 291.2904°
argument of perigee: 1.9874°
revolutions per day: 13.70970913
mean anomaly at epoch: 39.5326°
orbit number at epoch: 77385

The dashed part of the orbit path shows where the satellite is in the earth's shadow,  

DLR